Flag Weather past 2 weeks in Norfolk, Ontario, Canada

Now
27 °F

Chilly.


Feels Like: 23 °F
Forecast: 25 / 39 °F
Wind: 3 mph from South

Location: Delhi CS

Current Time: Nov 29, 2014 at 4:17:19 AM

Latest Report: Nov 29, 2014 at 3:00 AM


Visibility: N/A

Pressure: 30.13 "Hg

Humidity: 97%

Dew point: 27 °F

Location of NorfolkLocation

Historic Weather in Norfolk — Graph

°F

Norfolk temperature yesterday

Maximum temperature yesterday: 26 °F (at 12:00 AM)
Minimum temperature yesterday: 20 °F (at 7:00 AM)
Average temperature yesterday: 23 °F

Past Weeks' High & Low Weather Summary

 TemperatureHumidityPressure
High61 °F (Nov 24, 11:00 AM)100% (Nov 16, 11:00 AM)30.46 "Hg (Nov 16, 11:00 AM)
Low10 °F (Nov 19, 7:00 AM)46% (Nov 21, 3:00 PM)29.15 "Hg (Nov 24, 5:00 AM)
Average29 °F82%29.99 "Hg
* Reported Nov 14 3:00 AM — Nov 29 3:00 AM, Norfolk, Weather by CustomWeather, © 2014

Note: Actual official high and low records may vary slightly from our data, if they occured in-between our weather recording intervals... More about our weather records

Advertising

Norfolk weather history for previous 24 hours

 ConditionsComfort  
Time TempWeatherWind HumidityBarometerVisibility
3:00 AM
Nov 29
27 °FChilly.3 mph97%30.13 "HgN/A
2:00 AM25 °FChilly.2 mph96%30.14 "HgN/A
1:00 AM24 °FCold.2 mph92%30.15 "HgN/A
12:00 AM23 °FCold.1 mph85%30.18 "HgN/A
11:00 PM
Nov 28
22 °FCold.2 mph82%30.18 "HgN/A
10:00 PM23 °FCold.2 mph73%30.19 "HgN/A
9:00 PM23 °FCold.1 mph71%30.19 "HgN/A
8:00 PM22 °FCold.No wind72%30.20 "HgN/A
7:00 PM22 °FCold.1 mph73%30.23 "HgN/A
6:00 PM23 °FCold.2 mph68%30.24 "HgN/A
5:00 PM24 °FCold.5 mph66%30.23 "HgN/A
4:00 PM24 °FCold.5 mph70%30.23 "HgN/A
3:00 PM24 °FCold.5 mph63%30.23 "HgN/A
2:00 PM24 °FCold.6 mph67%30.24 "HgN/A
1:00 PM24 °FCold.6 mph66%30.26 "HgN/A
12:00 PM23 °FCold.7 mph67%30.28 "HgN/A
11:00 AM23 °FCold.6 mph71%30.30 "HgN/A
10:00 AM22 °FCold.7 mph72%30.32 "HgN/A
9:00 AM21 °FCold.7 mph78%30.31 "HgN/A
8:00 AM21 °FCold.5 mph80%30.30 "HgN/A
7:00 AM20 °FCold.6 mph74%30.30 "HgN/A
6:00 AM20 °FCold.6 mph72%30.29 "HgN/A
5:00 AM21 °FCold.6 mph74%30.28 "HgN/A
4:00 AM22 °FCold.8 mph73%30.27 "HgN/A
Weather by CustomWeather, © 2014

See weather overviewHow to use our weather pages